#timestamp,LO_Frequency,Hit,StdDev 
1460044815.4,286046998.1,N
1460044835.2,286046999.8,N
1460044855.0,286047003.5,N
1460044855.9,286047003.5,N
1460044875.8,286047003.9,N
1460044895.6,286047004.0,N
1460044915.4,286047004.4,N
1460044935.2,286047000.5,N
1460044955.1,286046999.9,N
1460044956.0,286046999.9,N
1460044975.8,286047001.1,N
1460044995.6,286046999.7,N
1460045015.5,286046998.3,N
1460045035.3,286046999.4,N
1460045055.1,286046999.7,N
1460045075.9,286047005.0,N
1460045095.7,286047002.2,N
1460045115.5,286047001.0,N
1460045135.4,286046998.9,N
1460045155.2,286046998.3,N
1460045175.0,286046998.1,N
1460045175.9,286046998.1,N
1460045195.8,286046998.4,N
1460045215.6,286047000.5,N
1460045235.4,286046998.8,N
1460045255.3,286047001.1,N
1460045275.1,286046998.5,N
1460045276.0,286046998.5,N
1460045295.8,286047000.3,N
1460045315.7,286047001.0,N
1460045335.5,286046998.8,N
1460045355.3,286046998.9,N
1460045375.1,286046995.4,N
1460045395.9,286046993.7,N
1460045415.7,286046997.6,N
1460045435.5,286046996.4,N
1460045455.4,286046995.9,N
1460045475.2,286046993.8,N
1460045495.0,286046994.4,N
1460045495.9,286046994.4,N
1460045515.8,286046992.0,Y
1460045535.6,286046993.3,P
1460045555.4,286046994.0,N
1460045575.3,286046991.8,P
1460045595.1,286046993.9,N
1460045615.8,286046993.6,N
1460045635.7,286046996.0,N
1460045655.5,286046995.7,N
1460045675.3,286046992.3,Y
1460045695.2,286046996.6,P
1460045715.9,286046996.5,P
1460045735.7,286046998.2,N
1460045755.6,286046998.1,N
1460045775.4,286047000.3,N
1460045795.2,286047002.8,N
1460045815.1,286047000.0,N
1460045816.0,286047000.0,N
1460045835.8,286047002.6,N
1460045855.6,286047004.3,N
1460045875.4,286047001.5,N
1460045895.3,286047000.1,N
1460045915.1,286047003.8,N
1460045935.8,286047005.7,N
1460045955.7,286047003.7,N
1460045975.5,286047003.1,N
1460045995.3,286047001.7,N
1460046015.2,286047004.4,N
1460046035.9,286047001.8,N
1460046055.7,286046999.9,N
1460046075.6,286047002.2,N
1460046095.4,286047000.7,N
1460046115.2,286047000.0,N
1460046135.1,286047001.7,N
1460046136.0,286047001.7,N
1460046155.8,286047002.6,N
1460046175.6,286047002.1,N
1460046195.4,286047002.5,N
1460046215.3,286047004.3,N
1460046235.1,286047004.8,N
1460046255.9,286047009.9,Y
1460046275.7,286047012.1,P
1460046295.5,286047013.0,N
1460046315.3,286047014.2,N
1460046335.2,286047015.6,Y
1460046355.0,286047006.4,P
1460046355.9,286047006.4,P
1460046375.8,286047010.3,P
1460046395.6,286047008.6,Y
1460046415.4,286047000.2,P
1460046435.3,286047000.4,N
1460046455.1,286047000.1,N
1460046456.0,286047000.1,N
1460046475.8,286047002.0,N
1460046495.7,286047002.8,N
1460046515.5,286047002.1,N
1460046535.3,286047002.1,N
1460046555.1,286046999.8,N
1460046575.9,286046999.9,N
1460046595.7,286047002.3,N
1460046615.5,286047004.2,N
1460046635.4,286047003.4,N
1460046655.2,286047004.2,N
1460046675.0,286047004.0,N
1460046675.9,286047004.0,N
1460046695.8,286047002.5,N
1460046715.6,286047003.8,N
1460046735.4,286047004.2,N
1460046755.3,286047005.4,N
1460046775.1,286047004.9,N
1460046776.0,286047004.9,N
1460046795.8,286047005.3,N
1460046815.7,286047001.3,N
1460046835.5,286047001.7,N
1460046855.3,286047003.9,N
1460046875.2,286047000.3,N
1460046895.9,286046999.7,N
1460046915.7,286046999.9,N
1460046935.5,286046998.6,N
1460046955.4,286046995.2,N
1460046975.2,286046991.7,Y
1460046995.0,286046991.2,P
1460046996.0,286046991.2,N
1460047015.8,286046987.4,N
1460047035.6,286046986.8,N
1460047055.4,286046986.6,N
1460047075.3,286046986.7,N
1460047095.1,286046986.4,N
1460047115.8,286046986.4,N
1460047135.7,286046985.1,Y
1460047155.5,286046991.9,P
1460047175.3,286046992.3,P
1460047195.2,286046993.2,P
1460047215.9,286046990.6,Y
1460047235.7,286047002.6,P
1460047255.6,286047001.7,N
1460047275.4,286047002.1,N
1460047295.2,286047003.1,N
1460047315.1,286047003.8,N
1460047316.0,286047003.8,N
1460047335.8,286047004.1,N
1460047355.6,286047003.9,N
1460047375.5,286047002.6,N
1460047395.3,286046998.2,N
1460047415.1,286047000.5,N
1460047435.9,286046998.5,N
1460047455.7,286046999.2,N
1460047475.5,286046998.6,N
1460047495.4,286047001.2,N
1460047515.2,286046998.2,N
1460047535.0,286047001.1,N
1460047535.9,286047001.1,N
1460047555.7,286047001.2,N
1460047575.6,286046997.0,N
1460047595.4,286046998.4,N
1460047615.2,286046999.9,N
1460047635.1,286046999.6,N
1460047636.0,286046999.6,N
1460047655.8,286046998.9,N
1460047675.6,286046997.5,N
1460047695.5,286046996.1,N
1460047715.3,286046996.9,N
1460047735.1,286046996.7,N
1460047755.9,286047001.0,N
1460047775.7,286046999.9,N
1460047795.5,286046999.8,N
1460047815.4,286047003.5,N
1460047835.2,286047004.1,N
1460047855.0,286047004.3,N
1460047855.9,286047004.3,N
1460047875.8,286047003.3,N
1460047895.6,286047004.9,N
1460047915.4,286047005.0,N
1460047935.2,286047004.6,N
1460047955.1,286047005.0,N
1460047956.0,286047005.0,N
1460047975.8,286047008.8,Y
1460047995.7,286047006.5,P
1460048015.5,286047006.1,N
1460048035.3,286047008.3,P
1460048055.1,286047005.1,N
1460048075.9,286047006.0,N
1460048095.7,286047008.5,Y
1460048115.5,286047002.4,P
1460048135.4,286047001.5,N
1460048155.2,286047002.4,N
1460048175.0,286047000.2,N
1460048175.9,286047000.2,N
1460048195.8,286047003.1,N
1460048215.6,286047004.4,N
1460048235.4,286047004.1,N
1460048255.3,286047002.3,N
1460048275.1,286047000.3,N
1460048276.0,286047000.3,N
1460048295.8,286047002.8,N
1460048315.7,286046999.1,N
1460048335.5,286046996.7,N
1460048355.3,286046997.1,N
1460048375.2,286046996.9,N
1460048395.9,286046995.5,N
